Date,TemperatureHighF,TemperatureAvgF,TemperatureLowF,DewpointHighF,DewpointAvgF,DewpointLowF,HumidityHigh,HumidityAvg,HumidityLow,PressureMaxIn,PressureMinIn,WindSpeedMaxMPH,WindSpeedAvgMPH,GustSpeedMaxMPH,PrecipitationSumIn
2013-2-1,17,3,-18,8,-7,-32,74,62,49,30.12,29.89,19,6,19,0.00
2013-2-2,31,10,-2,28,2,-12,89,69,60,30.11,29.85,36,11,36,0.01
2013-2-3,16,12,0,8,5,-7,76,72,67,30.07,29.92,14,4,14,0.00
2013-2-4,38,23,-3,31,17,-10,84,77,69,29.97,29.58,24,8,24,0.02
2013-2-5,33,20,10,27,12,3,81,72,60,29.96,29.65,21,5,21,0.00
2013-2-6,34,21,12,23,16,8,88,79,62,30.11,29.71,17,7,17,0.00
2013-2-7,21,14,6,19,8,0,91,79,71,30.19,30.11,17,7,17,0.00
2013-2-8,26,24,20,24,20,16,92,87,78,30.11,29.91,12,6,12,0.00
2013-2-9,32,20,8,23,14,3,92,78,60,29.91,29.79,11,4,11,0.00
2013-2-10,24,20,14,21,17,10,92,86,80,29.94,29.74,18,6,18,0.00
2013-2-11,28,19,15,16,12,7,83,73,56,29.99,29.75,19,8,19,0.00
2013-2-12,35,26,17,25,18,9,81,72,61,29.81,29.73,22,10,22,0.00
2013-2-13,34,29,26,31,26,20,95,87,74,29.75,29.58,12,2,14,0.09
2013-2-14,29,20,12,28,13,5,96,74,49,30.20,29.73,19,3,19,0.00
2013-2-15,22,15,10,14,8,4,84,73,62,30.32,30.02,16,6,16,0.00
2013-2-16,40,27,18,30,22,13,97,82,65,30.02,29.71,13,4,13,0.02
2013-2-17,42,32,17,35,29,14,100,87,72,29.71,29.45,25,12,25,0.05
2013-2-18,17,7,-8,14,0,-20,90,72,57,30.27,29.62,28,16,28,0.00
2013-2-19,8,-8,-18,-15,-24,-29,58,45,31,30.42,30.27,16,6,16,0.00
2013-2-20,10,0,-12,3,-11,-26,73,59,45,30.33,30.09,25,12,25,0.00
2013-2-21,24,16,10,18,10,3,85,79,70,30.15,30.05,17,8,17,0.00
2013-2-22,32,17,10,20,10,3,88,74,57,30.06,29.78,12,4,12,0.00
2013-2-23,40,24,8,28,18,3,92,78,57,29.78,29.68,13,4,13,0.00
2013-2-24,32,25,22,31,22,17,98,87,83,29.87,29.77,20,7,20,0.00
2013-2-25,88,74,63,70,65,59,100,75,51,29.97,29.86,22,10,22,0.04
2013-2-26,66,29,20,66,23,16,100,78,54,30.04,29.79,16,6,16,0.00
2013-2-27,28,21,17,21,17,11,91,83,74,30.25,30.03,16,7,16,0.00
2013-2-28,30,22,16,22,16,10,89,78,67,30.25,30.19,12,4,12,0.00